Time,TemperatureF,DewpointF,PressureIn,WindDirection,WindDirectionDegrees,WindSpeedMPH,WindSpeedGustMPH,Humidity,HourlyPrecipIn,Conditions,Clouds,dailyrainin,SoftwareType,DateUTC
2013-07-18 00:01:00,53.0,50.0,30.08,SW,225,2.0,4.0,90,0.00,,,0.00,,2013-07-18 07:01:00,
2013-07-18 00:11:00,53.0,50.0,30.08,SW,225,2.0,2.0,89,0.00,,,0.00,,2013-07-18 07:11:00,
2013-07-18 00:21:00,53.0,50.0,30.08,SW,225,4.0,4.0,90,0.00,,,0.00,,2013-07-18 07:21:00,
2013-07-18 00:42:00,53.0,50.0,30.08,SSW,203,3.0,3.0,90,0.00,,,0.00,,2013-07-18 07:42:00,
2013-07-18 00:52:00,53.0,50.0,30.08,SW,225,4.0,4.0,90,0.00,,,0.00,,2013-07-18 07:52:00,
2013-07-18 01:01:00,53.0,50.0,30.05,SW,225,3.0,3.0,90,0.00,,,0.00,,2013-07-18 08:01:00,
2013-07-18 01:11:00,53.0,50.0,30.05,SW,225,8.0,8.0,91,0.00,,,0.00,,2013-07-18 08:11:00,
2013-07-18 01:21:00,53.0,50.0,30.08,SSW,203,1.0,1.0,90,0.00,,,0.00,,2013-07-18 08:21:00,
2013-07-18 01:32:00,53.0,50.0,30.08,SSW,203,3.0,5.0,90,0.00,,,0.00,,2013-07-18 08:32:00,
2013-07-18 01:42:00,53.0,50.0,30.08,SW,225,4.0,5.0,90,0.00,,,0.00,,2013-07-18 08:42:00,
2013-07-18 01:51:00,53.0,50.0,30.05,SSW,203,3.0,3.0,90,0.00,,,0.00,,2013-07-18 08:51:00,
2013-07-18 02:01:00,53.0,50.0,30.05,SW,225,4.0,4.0,90,0.00,,,0.00,,2013-07-18 09:01:00,
2013-07-18 02:21:00,53.0,50.0,30.05,South,180,2.0,3.0,90,0.00,,,0.00,,2013-07-18 09:21:00,
2013-07-18 02:31:00,53.0,50.0,30.05,SW,225,3.0,4.0,90,0.00,,,0.00,,2013-07-18 09:31:00,
2013-07-18 02:41:00,53.0,50.0,30.05,SW,225,2.0,4.0,91,0.00,,,0.00,,2013-07-18 09:41:00,
2013-07-18 02:51:00,53.0,50.0,30.05,SW,225,3.0,3.0,91,0.00,,,0.00,,2013-07-18 09:51:00,
2013-07-18 03:01:00,53.0,50.0,30.05,South,180,3.0,4.0,91,0.00,,,0.00,,2013-07-18 10:01:00,
2013-07-18 03:11:00,53.0,50.0,30.05,SSW,203,5.0,5.0,91,0.00,,,0.00,,2013-07-18 10:11:00,
2013-07-18 03:21:00,53.0,50.0,30.05,SW,225,4.0,5.0,91,0.00,,,0.00,,2013-07-18 10:21:00,
2013-07-18 03:32:00,53.0,50.0,30.05,SSW,203,4.0,4.0,91,0.00,,,0.00,,2013-07-18 10:32:00,
2013-07-18 03:42:00,53.0,50.0,30.05,SSW,203,4.0,4.0,91,0.00,,,0.00,,2013-07-18 10:42:00,
2013-07-18 03:52:00,53.0,50.0,30.05,SW,225,2.0,8.0,91,0.00,,,0.00,,2013-07-18 10:52:00,
2013-07-18 04:01:00,53.0,50.0,30.05,SW,225,2.0,4.0,91,0.00,,,0.00,,2013-07-18 11:01:00,
2013-07-18 04:11:00,53.0,50.0,30.05,SSW,203,5.0,5.0,91,0.00,,,0.00,,2013-07-18 11:11:00,
2013-07-18 04:22:00,53.0,50.0,30.05,West,270,6.0,6.0,91,0.00,,,0.00,,2013-07-18 11:22:00,
2013-07-18 04:32:00,53.0,51.0,30.02,West,270,4.0,6.0,92,0.00,,,0.00,,2013-07-18 11:32:00,
2013-07-18 04:43:00,53.0,50.0,30.02,SSW,203,2.0,4.0,91,0.00,,,0.00,,2013-07-18 11:43:00,
2013-07-18 04:52:00,53.0,50.0,30.02,SW,225,3.0,3.0,91,0.00,,,0.00,,2013-07-18 11:52:00,
2013-07-18 05:01:00,53.0,51.0,30.02,SW,225,6.0,6.0,92,0.00,,,0.00,,2013-07-18 12:01:00,
2013-07-18 05:11:00,53.0,51.0,30.02,SW,225,2.0,3.0,92,0.00,,,0.00,,2013-07-18 12:11:00,
2013-07-18 05:22:00,53.0,50.0,30.02,SW,225,3.0,3.0,91,0.00,,,0.00,,2013-07-18 12:22:00,
2013-07-18 05:32:00,53.0,51.0,30.02,SW,225,4.0,5.0,92,0.00,,,0.00,,2013-07-18 12:32:00,
2013-07-18 05:42:00,53.0,50.0,30.02,West,270,3.0,3.0,91,0.00,,,0.00,,2013-07-18 12:42:00,
2013-07-18 05:52:00,53.0,51.0,30.02,SW,225,3.0,4.0,92,0.00,,,0.00,,2013-07-18 12:52:00,
2013-07-18 06:01:00,53.0,50.0,30.02,SW,225,2.0,4.0,91,0.00,,,0.00,,2013-07-18 13:01:00,
2013-07-18 06:11:00,53.0,50.0,30.02,SW,225,2.0,2.0,91,0.00,,,0.00,,2013-07-18 13:11:00,
2013-07-18 06:52:00,53.0,51.0,30.05,SW,225,2.0,4.0,92,0.00,,,0.00,,2013-07-18 13:52:00,
2013-07-18 07:32:00,53.0,50.0,30.05,South,180,2.0,4.0,91,0.00,,,0.00,,2013-07-18 14:32:00,
2013-07-18 07:52:00,53.0,50.0,30.05,SW,225,3.0,6.0,91,0.00,,,0.00,,2013-07-18 14:52:00,
2013-07-18 08:42:00,54.0,51.0,30.05,SW,225,1.0,1.0,89,0.00,,,0.00,,2013-07-18 15:42:00,
2013-07-18 08:52:00,53.0,50.0,30.05,WSW,248,2.0,3.0,89,0.00,,,0.00,,2013-07-18 15:52:00,
2013-07-18 09:01:00,54.0,51.0,30.05,SW,225,1.0,3.0,88,0.00,,,0.00,,2013-07-18 16:01:00,
2013-07-18 09:11:00,54.0,51.0,30.05,South,180,1.0,2.0,88,0.00,,,0.00,,2013-07-18 16:11:00,
2013-07-18 09:31:00,55.0,51.0,30.05,WSW,248,2.0,2.0,86,0.00,,,0.00,,2013-07-18 16:31:00,
2013-07-18 09:42:00,55.0,51.0,30.05,SSW,203,2.0,6.0,86,0.00,,,0.00,,2013-07-18 16:42:00,
2013-07-18 09:52:00,55.0,51.0,30.05,WSW,248,3.0,3.0,85,0.00,,,0.00,,2013-07-18 16:52:00,
2013-07-18 10:01:00,55.0,50.0,30.05,SSW,203,2.0,3.0,83,0.00,,,0.00,,2013-07-18 17:01:00,
2013-07-18 10:33:00,56.0,50.0,30.05,WSW,248,3.0,5.0,81,0.00,,,0.00,,2013-07-18 17:33:00,
2013-07-18 10:43:00,56.0,51.0,30.05,SSW,203,6.0,6.0,82,0.00,,,0.00,,2013-07-18 17:43:00,
2013-07-18 11:43:00,57.0,51.0,30.05,SW,225,7.0,9.0,79,0.00,,,0.00,,2013-07-18 18:43:00,
2013-07-18 11:52:00,57.0,51.0,30.05,SW,225,3.0,7.0,79,0.00,,,0.00,,2013-07-18 18:52:00,
2013-07-18 12:01:00,57.0,51.0,30.05,WSW,248,5.0,5.0,79,0.00,,,0.00,,2013-07-18 19:01:00,
2013-07-18 12:11:00,57.0,51.0,30.05,SW,225,5.0,5.0,79,0.00,,,0.00,,2013-07-18 19:11:00,
2013-07-18 12:32:00,57.0,50.0,30.05,SW,225,8.0,8.0,78,0.00,,,0.00,,2013-07-18 19:32:00,
2013-07-18 13:01:00,57.0,50.0,30.02,SW,225,6.0,7.0,77,0.00,,,0.00,,2013-07-18 20:01:00,
2013-07-18 13:11:00,57.0,50.0,30.02,SSW,203,6.0,6.0,77,0.00,,,0.00,,2013-07-18 20:11:00,
2013-07-18 13:31:00,57.0,50.0,30.02,SW,225,6.0,6.0,76,0.00,,,0.00,,2013-07-18 20:31:00,
2013-07-18 13:43:00,57.0,50.0,30.02,SW,225,7.0,8.0,76,0.00,,,0.00,,2013-07-18 20:43:00,
2013-07-18 13:52:00,58.0,50.0,30.02,SSW,203,4.0,8.0,76,0.00,,,0.00,,2013-07-18 20:52:00,
2013-07-18 14:01:00,58.0,50.0,30.02,WNW,293,4.0,8.0,75,0.00,,,0.00,,2013-07-18 21:01:00,
2013-07-18 14:11:00,58.0,50.0,30.02,West,270,4.0,4.0,75,0.00,,,0.00,,2013-07-18 21:11:00,
2013-07-18 14:52:00,59.0,51.0,30.02,SSW,203,8.0,8.0,74,0.00,,,0.00,,2013-07-18 21:52:00,
2013-07-18 15:01:00,59.0,50.0,30.02,WSW,248,5.0,8.0,73,0.00,,,0.00,,2013-07-18 22:01:00,
2013-07-18 15:32:00,59.0,50.0,30.02,SW,225,3.0,6.0,73,0.00,,,0.00,,2013-07-18 22:32:00,
2013-07-18 15:42:00,58.0,49.0,29.99,SW,225,6.0,6.0,73,0.00,,,0.00,,2013-07-18 22:42:00,
2013-07-18 16:01:00,58.0,50.0,29.99,SSW,203,10.0,10.0,74,0.00,,,0.00,,2013-07-18 23:01:00,
2013-07-18 16:32:00,58.0,50.0,29.99,WSW,248,9.0,10.0,75,0.00,,,0.00,,2013-07-18 23:32:00,
2013-07-18 16:42:00,58.0,50.0,29.99,SW,225,6.0,9.0,75,0.00,,,0.00,,2013-07-18 23:42:00,
2013-07-18 16:52:00,58.0,50.0,29.99,SW,225,10.0,10.0,75,0.00,,,0.00,,2013-07-18 23:52:00,
2013-07-18 17:42:00,58.0,50.0,29.96,SSW,203,5.0,13.0,74,0.00,,,0.00,,2013-07-19 00:42:00,
2013-07-18 17:52:00,58.0,50.0,29.96,SW,225,7.0,7.0,74,0.00,,,0.00,,2013-07-19 00:52:00,
2013-07-18 18:42:00,58.0,50.0,29.96,SW,225,4.0,7.0,74,0.00,,,0.00,,2013-07-19 01:42:00,
2013-07-18 19:01:00,57.0,49.0,29.96,South,180,7.0,7.0,74,0.00,,,0.00,,2013-07-19 02:01:00,
2013-07-18 19:52:00,56.0,49.0,29.96,SW,225,4.0,5.0,76,0.00,,,0.00,,2013-07-19 02:52:00,
2013-07-18 20:52:00,53.0,49.0,29.96,SW,225,1.0,5.0,87,0.00,,,0.00,,2013-07-19 03:52:00,
2013-07-18 21:43:00,53.0,50.0,29.96,SW,225,1.0,4.0,89,0.00,,,0.00,,2013-07-19 04:43:00,
2013-07-18 21:52:00,53.0,50.0,29.96,SW,225,3.0,4.0,88,0.00,,,0.00,,2013-07-19 04:52:00,
2013-07-18 22:02:00,53.0,50.0,29.99,SW,225,11.0,11.0,90,0.00,,,0.00,,2013-07-19 05:02:00,
2013-07-18 22:11:00,53.0,50.0,29.99,SSW,203,2.0,11.0,90,0.00,,,0.00,,2013-07-19 05:11:00,
2013-07-18 22:52:00,53.0,50.0,29.99,SSW,203,2.0,2.0,89,0.00,,,0.00,,2013-07-19 05:52:00,
2013-07-18 23:01:00,53.0,50.0,29.99,SE,135,4.0,4.0,89,0.00,,,0.00,,2013-07-19 06:01:00,
2013-07-18 23:32:00,53.0,50.0,29.96,SW,225,4.0,4.0,90,0.00,,,0.00,,2013-07-19 06:32:00,
2013-07-18 23:52:00,53.0,50.0,29.96,SSW,203,3.0,5.0,90,0.00,,,0.00,,2013-07-19 06:52:00,